EW4553 Weather Reports


time (UTC)temp
C
wind
direction
speed
KPH
gust
KPH
rain 1hr
cm
rain 24hr
cm
rain mn
cm
humidity
%
barometer
mb
20260502161219 11 200 0.0 3.2 0.10 0.64 0.64 93 1012.5
20260502160654 11 200 0.0 4.8 0.10 0.61 0.64 93 1012.6
20260502160125 11 200 1.6 4.8 0.08 0.61 0.61 92 1012.7
20260502152016 11 202 1.6 9.7 0.15 0.53 0.53 91 1013.2
20260502151555 11 154 0.0 8.0 0.15 0.53 0.53 91 1013.2
20260502151510 11 131 3.2 8.0 0.18 0.53 0.53 91 1013.3
20260502150942 11 128 4.8 8.0 0.20 0.53 0.53 91 1013.4
20260502150701 11 128 3.2 8.0 0.23 0.51 0.51 91 1013.4
20260502150110 11 128 4.8 8.0 0.23 0.51 0.51 91 1013.3
20260502123436 12 128 1.6 4.8 0.03 0.03 0.03 86 1014.9
20260502123136 12 130 1.6 8.0 0.03 0.03 0.03 86 1015.0
20260502123104 12 130 0.0 4.8 0.03 0.03 0.03 86 1014.8
20260502122352 12 132 1.6 8.0 0.03 0.03 0.03 86 1015.2
20260502122318 13 133 1.6 8.0 0.03 0.03 0.03 86 1015.4
20260502121559 12 133 0.0 8.0 0.03 0.03 0.03 86 1015.3
20260502121552 13 133 0.0 8.0 0.00 0.00 0.00 86 1015.4
20260502120827 13 133 1.6 4.8 0.00 0.00 0.00 86 1015.6
20260502120336 13 133 1.6 8.0 0.00 0.00 0.00 85 1015.6
20260502120104 13 133 1.6 6.4 0.00 0.00 0.00 86 1015.5
20260502115807 13 133 3.2 8.0 0.00 0.00 0.00 85 1015.7
20260502115306 13 133 1.6 8.0 0.00 0.00 0.00 85 1015.7
20260502114747 13 132 3.2 8.0 0.00 0.00 0.00 86 1015.8
20260502114501 13 131 1.6 8.0 0.00 0.00 0.00 86 1015.7
20260502114221 13 131 3.2 8.0 0.00 0.00 0.00 85 1015.8
20260502113721 13 131 3.2 11.3 0.00 0.00 0.00 85 1015.8
20260502113152 13 116 1.6 11.3 0.00 0.00 0.00 85 1016.0
20260502113035 13 112 0.0 8.0 0.00 0.00 0.00 85 1015.8
20260502112846 13 112 4.8 11.3 0.00 0.00 0.00 85 1016.0
20260502112102 13 112 4.8 11.3 0.00 0.00 0.00 84 1016.0
20260502111603 13 128 3.2 11.3 0.00 0.00 0.00 83 1016.0
20260502111545 13 128 3.2 11.3 0.00 0.00 0.00 83 1015.9
20260502111058 13 113 1.6 11.3 0.00 0.00 0.00 83 1016.0
20260502110559 13 132 4.8 11.3 0.00 0.00 0.00 83 1016.1
20260502110257 13 121 4.8 11.3 0.00 0.00 0.00 82 1016.2
20260502110026 13 133 4.8 11.3 0.00 0.00 0.00 82 1016.0
20260502105525 14 133 4.8 11.3 0.00 0.00 0.00 81 1016.2
20260502105020 15 119 4.8 11.3 0.00 0.00 0.00 81 1016.3
20260502104516 15 108 3.2 9.7 0.00 0.00 0.00 80 1016.4
20260502104015 15 143 1.6 8.0 0.00 0.00 0.00 81 1016.4
20260502103510 15 143 0.0 8.0 0.00 0.00 0.00 82 1016.4
20260502103026 15 121 0.0 4.8 0.00 0.00 0.00 83 1016.4
20260502102945 15 121 0.0 9.7 0.00 0.00 0.00 82 1016.4
20260502102419 14 121 1.6 9.7 0.00 0.00 0.00 83 1016.5
20260502101853 14 121 3.2 9.7 0.00 0.00 0.00 83 1016.6
20260502101605 13 121 4.8 9.7 0.00 0.00 0.00 83 1016.5
20260502101324 14 121 4.8 12.9 0.00 0.00 0.00 83 1016.7
20260502100820 14 122 4.8 12.9 0.00 0.00 0.00 82 1016.8
20260502100254 14 105 4.8 12.9 0.00 0.00 0.00 82 1016.9
20260502091531 15 116 3.2 9.7 0.00 0.00 0.00 76 1016.8
20260502091128 15 124 0.0 9.7 0.00 0.00 0.00 77 1017.0
20260502090603 15 123 0.0 0.0 0.00 0.00 0.00 78 1017.0
20260502090557 15 122 0.0 8.0 0.00 0.00 0.00 80 1017.1
20260502080106 12 156 0.0 0.0 0.00 0.00 0.00 93 1017.3
20260502071512 11 273 0.0 0.0 0.00 0.00 0.00 94 1017.8
20260502071229 11 273 0.0 0.0 0.00 0.00 0.00 94 1017.9
20260502070659 10 273 0.0 0.0 0.00 0.00 0.00 94 1018.0
20260502070158 10 273 0.0 0.0 0.00 0.00 0.00 94 1018.0
20260502070020 10 273 0.0 0.0 0.00 0.00 0.00 94 1017.8
20260502065630 10 273 0.0 0.0 0.00 0.00 0.00 94 1018.0
20260502065129 10 273 0.0 0.0 0.00 0.00 0.00 94 1018.0
20260502064620 10 273 0.0 0.0 0.00 0.00 0.00 94 1018.0
20260502064532 10 273 0.0 0.0 0.00 0.00 0.00 94 1017.8
20260502064343 10 273 0.0 0.0 0.00 0.00 0.00 93 1018.0
20260502063558 10 273 0.0 0.0 0.00 0.00 0.00 93 1017.9
20260502063058 10 271 0.0 0.0 0.00 0.00 0.00 93 1017.9
20260502063054 10 271 0.0 0.0 0.00 0.00 0.00 93 1017.8
20260502062533 10 271 0.0 0.0 0.00 0.00 0.00 93 1018.0
20260502062021 10 271 0.0 0.0 0.00 0.00 0.00 94 1018.0
20260502061742 10 271 0.0 0.0 0.00 0.00 0.00 94 1018.0
20260502061559 10 271 0.0 0.0 0.00 0.00 0.00 94 1017.9
20260502060951 10 271 0.0 0.0 0.00 0.00 0.00 94 1018.0
20260502060448 10 271 0.0 0.0 0.00 0.00 0.00 94 1018.1
20260502060100 9 271 0.0 0.0 0.00 0.00 0.00 94 1018.0
20260502055925 10 271 0.0 0.0 0.00 0.00 0.00 94 1018.1
20260502055356 9 271 0.0 0.0 0.00 0.00 0.00 94 1018.1
20260502054830 9 271 0.0 0.0 0.00 0.00 0.00 93 1018.2
20260502054519 9 271 0.0 0.0 0.00 0.00 0.00 93 1018.1
20260502054329 9 271 0.0 0.0 0.00 0.00 0.00 93 1018.2
20260502053759 9 271 0.0 0.0 0.00 0.00 0.00 94 1018.3
20260502053250 9 271 0.0 0.0 0.00 0.00 0.00 94 1018.3
20260502053003 9 271 0.0 0.0 0.00 0.00 0.00 94 1018.2
20260502052748 9 271 0.0 0.0 0.00 0.00 0.00 94 1018.3
20260502052251 9 271 0.0 0.0 0.00 0.00 0.00 94 1018.3
20260502051948 9 271 0.0 0.0 0.00 0.00 0.00 94 1018.3
20260502051527 8 271 0.0 0.0 0.00 0.00 0.00 94 1018.2
20260502051220 9 271 0.0 0.0 0.00 0.00 0.00 94 1018.3
20260502050715 9 271 0.0 0.0 0.00 0.00 0.00 94 1018.4
20260502050135 8 271 0.0 0.0 0.00 0.00 0.00 93 1018.4
20260502050011 8 271 0.0 0.0 0.00 0.00 0.00 93 1018.3
20260502045610 8 271 0.0 0.0 0.00 0.00 0.00 93 1018.5
20260502045311 8 271 0.0 0.0 0.00 0.00 0.00 93 1018.4
20260502045300 8 271 0.0 0.0 0.00 0.00 0.00 93 1018.5
20260502044539 8 271 0.0 0.0 0.00 0.00 0.00 93 1018.3
20260502044049 8 271 0.0 0.0 0.00 0.00 0.00 93 1018.4
20260502043752 8 271 0.0 0.0 0.00 0.00 0.00 93 1018.4
20260502043055 8 271 0.0 0.0 0.00 0.00 0.00 93 1018.3
20260502043012 8 271 0.0 0.0 0.00 0.00 0.00 93 1018.4
20260502042713 8 271 0.0 0.0 0.00 0.00 0.00 93 1018.4
20260502041926 8 271 0.0 0.0 0.00 0.00 0.00 93 1018.4
20260502041554 8 271 0.0 0.0 0.00 0.00 0.00 93 1018.4
20260502041404 8 271 0.0 0.0 0.00 0.00 0.00 93 1018.4
20260502040847 8 271 0.0 0.0 0.00 0.00 0.00 92 1018.4
20260502040333 8 271 0.0 0.0 0.00 0.00 0.00 92 1018.5
20260502040017 8 271 0.0 0.0 0.00 0.00 0.00 92 1018.3
20260502035830 8 271 0.0 0.0 0.00 0.00 0.00 92 1018.4
20260502035329 8 271 0.0 0.0 0.00 0.00 0.00 92 1018.3
20260502034832 8 271 0.0 0.0 0.00 0.00 0.00 92 1018.3
20260502034544 8 271 0.0 0.0 0.00 0.00 0.00 92 1018.2
20260502034309 8 271 0.0 0.0 0.00 0.00 0.00 92 1018.3
20260502033801 8 271 0.0 0.0 0.00 0.00 0.00 92 1018.4
20260502033527 9 271 0.0 0.0 0.00 0.00 0.00 93 1018.4
20260502033028 8 271 0.0 0.0 0.00 0.00 0.00 93 1018.3
20260502032743 9 271 0.0 0.0 0.00 0.00 0.00 93 1018.4
20260502032233 9 271 0.0 0.0 0.00 0.00 0.00 93 1018.4
20260502031732 9 271 0.0 0.0 0.00 0.00 0.00 93 1018.5
20260502031559 8 271 0.0 0.0 0.00 0.00 0.00 93 1018.3
20260502031430 9 271 0.0 0.0 0.00 0.00 0.00 93 1018.5
20260502030644 9 271 0.0 0.0 0.00 0.00 0.00 93 1018.6
20260502030143 9 271 0.0 0.0 0.00 0.00 0.00 93 1018.7
20260502030018 8 271 0.0 0.0 0.00 0.00 0.00 93 1018.7
20260502025637 9 270 0.0 0.0 0.00 0.00 0.00 93 1018.7
20260502025135 9 270 0.0 0.0 0.00 0.00 0.00 93 1018.8
20260502024609 9 270 0.0 0.0 0.00 0.00 0.00 93 1018.8
20260502024547 8 270 0.0 0.0 0.00 0.00 0.00 93 1018.7
20260502024103 9 270 0.0 0.0 0.00 0.00 0.00 92 1018.9
20260502023528 9 270 0.0 0.0 0.00 0.00 0.00 92 1019.0
20260502023045 8 270 0.0 0.0 0.00 0.00 0.00 92 1019.0
20260502023015 9 270 0.0 0.0 0.00 0.00 0.00 92 1019.1
20260502022516 9 270 0.0 0.0 0.00 0.00 0.00 92 1019.1
20260502022017 9 270 0.0 0.0 0.00 0.00 0.00 92 1019.2
20260502021533 9 270 0.0 0.0 0.00 0.00 0.00 92 1019.1
20260502021449 9 270 0.0 0.0 0.00 0.00 0.00 92 1019.2
20260502020922 9 270 0.0 0.0 0.00 0.00 0.00 92 1019.2
20260502020356 9 270 0.0 0.0 0.00 0.00 0.00 92 1019.3
20260502020011 9 270 0.0 0.0 0.00 0.00 0.00 92 1019.2
20260502015839 9 270 0.0 0.0 0.00 0.00 0.00 92 1019.3
20260502015340 10 270 0.0 0.0 0.00 0.00 0.00 92 1019.3
20260502014842 10 270 0.0 0.0 0.00 0.00 0.00 92 1019.4
20260502014553 9 270 0.0 0.0 0.00 0.00 0.00 92 1019.3
20260502014325 10 270 0.0 0.0 0.00 0.00 0.00 92 1019.5
20260502013826 10 270 0.0 0.0 0.00 0.00 0.00 92 1019.5
20260502013543 10 270 0.0 0.0 0.00 0.00 0.00 92 1019.6
20260502013013 10 270 0.0 0.0 0.00 0.00 0.00 92 1019.5
20260502012822 10 270 0.0 0.0 0.00 0.00 0.00 92 1019.7
20260502012309 10 270 0.0 0.0 0.00 0.00 0.00 92 1019.7
20260502011814 10 270 0.0 0.0 0.00 0.00 0.00 92 1019.7
20260502011550 10 270 0.0 0.0 0.00 0.00 0.00 92 1019.6
20260502011301 10 270 0.0 0.0 0.00 0.00 0.00 92 1019.8
20260502011024 10 270 0.0 0.0 0.00 0.00 0.00 92 1019.9
20260502010257 10 270 0.0 0.0 0.00 0.00 0.00 92 1019.8
20260502010038 10 270 0.0 0.0 0.00 0.00 0.00 92 1019.7
20260502005757 10 271 0.0 0.0 0.00 0.00 0.00 92 1019.8
20260502005228 10 271 0.0 0.0 0.00 0.00 0.00 92 1019.8
20260502004711 10 271 0.0 0.0 0.00 0.00 0.00 92 1019.8
20260502004511 10 271 0.0 0.0 0.00 0.00 0.00 92 1019.7
20260502004210 10 271 0.0 0.0 0.00 0.00 0.00 92 1019.9
20260502003641 10 271 0.0 0.0 0.00 0.00 0.00 92 1019.9
20260502003140 10 271 0.0 0.0 0.00 0.00 0.00 92 1020.0
20260502003000 10 271 0.0 0.0 0.00 0.00 0.00 92 1019.9
20260502002830 10 271 0.0 0.0 0.00 0.00 0.00 92 1020.0
20260502002110 10 271 0.0 0.0 0.00 0.00 0.00 92 1020.0
20260502001544 10 271 0.0 0.0 0.00 0.00 0.00 92 1020.1
20260502001515 10 271 0.0 0.0 0.00 0.00 0.00 92 1020.0
20260502001018 10 271 0.0 0.0 0.00 0.00 0.00 92 1020.1
20260502000449 10 271 0.0 0.0 0.00 0.00 0.00 92 1020.2
20260502000019 10 271 0.0 0.0 0.00 0.00 0.00 92 1020.1
20260501235938 10 271 0.0 0.0 0.00 0.00 0.00 92 1020.2
20260501235425 10 271 0.0 0.0 0.00 0.00 0.00 92 1020.1
20260501234926 10 271 0.0 0.0 0.00 0.00 0.00 91 1020.2
20260501234554 10 271 0.0 0.0 0.00 0.00 0.00 91 1020.0
20260501234422 10 271 0.0 0.0 0.00 0.00 0.00 91 1020.2
20260501233856 10 271 0.0 1.6 0.00 0.00 0.00 91 1020.2
20260501233327 10 271 0.0 1.6 0.00 0.00 0.00 91 1020.2
20260501233017 10 271 0.0 1.6 0.00 0.00 0.00 91 1020.0
20260501232826 10 271 0.0 1.6 0.00 0.00 0.00 91 1020.1
20260501232522 10 271 0.0 1.6 0.00 0.00 0.00 91 1020.2
20260501232018 10 271 0.0 0.0 0.00 0.00 0.00 90 1020.1
20260501231506 10 271 0.0 1.6 0.00 0.00 0.00 90 1020.0
20260501231227 10 271 0.0 4.8 0.00 0.00 0.00 91 1020.1
20260501230726 10 271 0.0 4.8 0.00 0.00 0.00 91 1020.2
20260501230204 10 271 3.2 9.7 0.00 0.00 0.00 91 1020.2
20260501230041 10 271 0.0 9.7 0.00 0.00 0.00 91 1020.1
20260501225659 11 271 4.8 9.7 0.00 0.00 0.00 91 1020.3
20260501225159 11 271 8.0 9.7 0.00 0.00 0.00 91 1020.3
20260501224645 11 270 8.0 9.7 0.00 0.00 0.00 91 1020.2
20260501224548 10 270 6.4 9.7 0.00 0.00 0.00 91 1020.1
20260501224145 10 270 8.0 9.7 0.00 0.00 0.00 91 1020.2
20260501223645 10 275 8.0 9.7 0.00 0.00 0.00 91 1020.2
20260501223145 10 276 6.4 8.0 0.00 0.00 0.00 90 1020.2
20260501223034 10 276 4.8 8.0 0.00 0.00 0.00 90 1020.0
20260501222646 11 276 4.8 8.0 0.00 0.00 0.00 90 1020.2
20260501222132 11 276 3.2 8.0 0.00 0.00 0.00 91 1020.3
20260501221631 11 275 0.0 6.4 0.00 0.00 0.00 90 1020.3
20260501221502 10 227 0.0 0.0 0.00 0.00 0.00 90 1020.2
20260501221126 11 211 0.0 0.0 0.00 0.00 0.00 90 1020.5
20260501220626 11 211 0.0 0.0 0.00 0.00 0.00 90 1020.5
20260501220125 11 211 0.0 0.0 0.00 0.00 0.00 90 1020.6
20260501220057 11 211 0.0 0.0 0.00 0.00 0.00 90 1020.5
20260501215622 11 211 0.0 0.0 0.00 0.00 0.00 90 1020.6
20260501215117 11 211 0.0 0.0 0.00 0.00 0.00 90 1020.6
20260501214615 11 211 0.0 0.0 0.00 0.00 0.00 90 1020.6
20260501214556 11 211 0.0 0.0 0.00 0.00 0.00 90 1020.4
20260501214111 11 211 0.0 0.0 0.00 0.00 0.00 90 1020.6
20260501213612 11 211 0.0 0.0 0.00 0.00 0.00 90 1020.5
20260501213110 11 211 0.0 0.0 0.00 0.00 0.00 89 1020.4
20260501213044 11 211 0.0 0.0 0.00 0.00 0.00 89 1020.3
20260501212604 11 211 0.0 0.0 0.00 0.00 0.00 89 1020.4
20260501212040 11 181 0.0 0.0 0.00 0.00 0.00 89 1020.4
20260501211612 11 152 0.0 0.0 0.00 0.00 0.00 89 1020.2
20260501211523 11 150 0.0 0.0 0.00 0.00 0.00 89 1020.3
20260501210958 11 150 0.0 0.0 0.00 0.00 0.00 88 1020.4
20260501210936 11 150 0.0 0.0 0.00 0.00 0.00 88 1020.3
20260501210143 11 150 0.0 0.0 0.00 0.00 0.00 88 1020.3
20260501210001 11 150 0.0 0.0 0.00 0.00 0.00 88 1020.1
20260501205358 11 150 0.0 0.0 0.00 0.00 0.00 88 1020.2
20260501204855 11 150 0.0 0.0 0.00 0.00 0.00 88 1020.1
20260501204547 11 150 0.0 0.0 0.00 0.00 0.00 88 1020.0
20260501204353 12 150 0.0 0.0 0.00 0.00 0.00 88 1020.1
20260501203843 12 150 0.0 0.0 0.00 0.00 0.00 88 1020.1
20260501203339 12 150 0.0 0.0 0.00 0.00 0.00 87 1020.1
20260501203305 12 150 0.0 0.0 0.00 0.00 0.00 87 1020.1
20260501203052 12 150 0.0 0.0 0.00 0.00 0.00 87 1019.9
20260501202251 12 150 0.0 0.0 0.00 0.00 0.00 86 1020.0
20260501202009 12 150 0.0 0.0 0.00 0.00 0.00 86 1020.0
20260501201609 12 150 0.0 0.0 0.00 0.00 0.00 86 1019.9
20260501201219 12 150 0.0 0.0 0.00 0.00 0.00 87 1020.0
20260501200917 12 150 0.0 0.0 0.00 0.00 0.00 87 1020.0
20260501200408 12 150 0.0 0.0 0.00 0.00 0.00 87 1020.0
20260501200059 12 150 0.0 0.0 0.00 0.00 0.00 87 1019.8
20260501195645 12 150 0.0 0.0 0.00 0.00 0.00 86 1020.0
20260501195120 12 150 0.0 0.0 0.00 0.00 0.00 86 1020.0
20260501194556 12 150 0.0 0.0 0.00 0.00 0.00 86 1019.9
20260501194540 12 150 0.0 0.0 0.00 0.00 0.00 86 1019.7
20260501194042 12 150 0.0 0.0 0.00 0.00 0.00 86 1020.0
20260501193540 12 150 0.0 0.0 0.00 0.00 0.00 85 1019.9
20260501193042 12 150 0.0 0.0 0.00 0.00 0.00 85 1019.9
20260501193031 12 150 0.0 0.0 0.00 0.00 0.00 85 1019.8
20260501192522 12 150 0.0 8.0 0.00 0.00 0.00 85 1019.9
20260501191959 12 150 1.6 8.0 0.00 0.00 0.00 85 1019.9
20260501191543 12 150 0.0 8.0 0.00 0.00 0.00 84 1019.7
20260501191502 12 151 3.2 8.0 0.00 0.00 0.00 84 1019.9
20260501191206 13 149 3.2 8.0 0.00 0.00 0.00 84 1019.9
20260501190439 13 170 1.6 6.4 0.00 0.00 0.00 84 1019.8
20260501190025 12 170 0.0 8.0 0.00 0.00 0.00 84 1019.7
20260501185936 13 170 1.6 8.0 0.00 0.00 0.00 84 1019.8
20260501185408 13 170 1.6 8.0 0.00 0.00 0.00 84 1019.7
20260501184906 13 198 3.2 8.0 0.00 0.00 0.00 83 1019.7
20260501184508 13 151 1.6 8.0 0.00 0.00 0.00 83 1019.5
20260501184337 13 143 1.6 8.0 0.00 0.00 0.00 83 1019.6
20260501183836 13 159 3.2 8.0 0.00 0.00 0.00 83 1019.7
20260501183316 13 159 3.2 9.7 0.00 0.00 0.00 83 1019.6
20260501183008 13 158 3.2 9.7 0.00 0.00 0.00 83 1019.5
20260501182815 13 148 3.2 9.7 0.00 0.00 0.00 83 1019.6
20260501182313 13 151 3.2 8.0 0.00 0.00 0.00 83 1019.6
20260501181810 13 147 4.8 8.0 0.00 0.00 0.00 83 1019.6
20260501181543 13 146 3.2 8.0 0.00 0.00 0.00 83 1019.4
20260501181303 13 143 3.2 14.5 0.00 0.00 0.00 83 1019.6
20260501181019 13 148 3.2 8.0 0.00 0.00 0.00 83 1019.6
20260501180255 13 180 4.8 14.5 0.00 0.00 0.00 84 1019.6
20260501180007 13 177 4.8 14.5 0.00 0.00 0.00 83 1019.5
20260501175743 13 174 4.8 14.5 0.00 0.00 0.00 84 1019.6
20260501175246 13 171 3.2 11.3 0.00 0.00 0.00 84 1019.6
20260501174713 13 148 3.2 11.3 0.00 0.00 0.00 84 1019.7
20260501174559 13 148 1.6 9.7 0.00 0.00 0.00 84 1019.6
20260501174212 13 145 4.8 11.3 0.00 0.00 0.00 84 1019.7
20260501173647 13 159 4.8 14.5 0.00 0.00 0.00 84 1019.7
20260501173147 13 190 4.8 14.5 0.00 0.00 0.00 83 1019.7
20260501173023 13 149 4.8 11.3 0.00 0.00 0.00 83 1019.6
20260501172646 13 150 4.8 14.5 0.00 0.00 0.00 83 1019.7
20260501172143 13 148 6.4 16.1 0.00 0.00 0.00 82 1019.7
20260501171635 13 162 6.4 16.1 0.00 0.00 0.00 82 1019.7
20260501171545 13 188 4.8 16.1 0.00 0.00 0.00 82 1019.6
20260501171133 14 183 4.8 14.5 0.00 0.00 0.00 81 1019.8
20260501170605 14 202 4.8 12.9 0.00 0.00 0.00 81 1019.7
20260501170331 14 138 6.4 17.7 0.00 0.00 0.00 80 1019.7
20260501170016 14 190 1.6 17.7 0.00 0.00 0.00 80 1019.6
20260501165837 14 179 6.4 17.7 0.00 0.00 0.00 79 1019.8
20260501165527 15 146 6.4 17.7 0.00 0.00 0.00 78 1019.7
20260501164529 15 147 8.0 17.7 0.00 0.00 0.00 78 1019.8
20260501164514 15 140 4.8 17.7 0.00 0.00 0.00 77 1019.6
20260501164024 15 149 8.0 16.1 0.00 0.00 0.00 77 1019.8
20260501163522 15 178 4.8 16.1 0.00 0.00 0.00 76 1019.7
20260501163013 15 166 4.8 14.5 0.00 0.00 0.00 75 1019.6
20260501162954 16 166 4.8 16.1 0.00 0.00 0.00 75 1019.8
20260501162451 16 136 4.8 20.9 0.00 0.00 0.00 74 1019.9
20260501161943 16 207 3.2 20.9 0.00 0.00 0.00 73 1019.9
20260501161523 16 190 0.0 20.9 0.00 0.00 0.00 74 1019.6
20260501161442 16 192 4.8 20.9 0.00 0.00 0.00 74 1019.8